Location: Warszawa
(52.2500°N, 21.0000°E)
Time: 00:37:00
(UTC+02:00)

AO-27 - Pass Details

Date: 18 April 2024
Orbit: 783 x 797 km, 98.8° (Epoch: 26 May)

Event Time Altitude Azimuth Distance (km) Brightness Sun altitude
Exits shadow 21:25:50 - 186° (S) 2,849 10.2 -14.7°
Reaches altitude 10° 21:27:08 10° 191° (S) 2,362 9.8 -14.8°
Maximum altitude 21:32:05 43° 262° (W) 1,119 8.7 -15.4°
Drops below altitude 10° 21:37:05 10° 333° (NNW) 2,381 11.3 -15.9°
Sets 21:39:33 0° 341° (NNW) 3,316 12.1 -16.2°
